TimeMDT,TemperatureF,Dew PointF,Humidity,Sea Level PressureIn,VisibilityMPH,Wind Direction,Wind SpeedMPH,Gust SpeedMPH,PrecipitationIn,Events,Conditions,WindDirDegrees,DateUTC
12:53 AM,50.0,39.0,66,29.68,10.0,ESE,8.1,-,N/A,,Overcast,110,2013-05-17 06:53:00
1:53 AM,48.0,41.0,77,29.73,10.0,South,8.1,-,0.00,,Scattered Clouds,170,2013-05-17 07:53:00
2:53 AM,43.0,37.9,82,29.71,10.0,SSW,5.8,-,N/A,,Clear,200,2013-05-17 08:53:00
3:53 AM,43.0,36.0,76,29.69,10.0,WSW,4.6,-,N/A,,Clear,240,2013-05-17 09:53:00
4:53 AM,39.9,35.1,83,29.72,10.0,South,6.9,-,N/A,,Clear,170,2013-05-17 10:53:00
6:53 AM,46.9,39.0,74,29.72,-9999.0,SSW,6.9,-,N/A,,Clear,200,2013-05-17 12:53:00
7:53 AM,51.1,37.9,61,29.73,10.0,SSW,5.8,-,N/A,,Clear,200,2013-05-17 13:53:00
8:53 AM,55.9,35.1,45,29.74,10.0,North,-9999.0,-,N/A,,Clear,0,2013-05-17 14:53:00
9:53 AM,66.0,28.9,25,29.70,10.0,SSW,19.6,23.0,N/A,,Clear,200,2013-05-17 15:53:00
10:53 AM,70.0,28.9,22,29.68,10.0,SSW,17.3,24.2,N/A,,Clear,210,2013-05-17 16:53:00
11:53 AM,72.0,21.0,15,29.67,10.0,SSW,20.7,31.1,N/A,,Partly Cloudy,210,2013-05-17 17:53:00
1:53 PM,75.0,23.0,14,29.65,10.0,SSW,17.3,27.6,N/A,,Clear,210,2013-05-17 19:53:00
2:53 PM,73.9,19.0,13,29.66,10.0,South,11.5,32.2,N/A,,Clear,190,2013-05-17 20:53:00
3:53 PM,73.9,18.0,12,29.65,10.0,SW,25.3,31.1,N/A,,Clear,220,2013-05-17 21:53:00
4:53 PM,72.0,18.0,13,29.66,10.0,WSW,20.7,31.1,N/A,,Clear,250,2013-05-17 22:53:00
5:53 PM,70.0,17.1,13,29.67,10.0,WSW,21.9,-,N/A,,Clear,240,2013-05-17 23:53:00
6:53 PM,66.9,21.9,18,29.65,10.0,WSW,12.7,-,N/A,,Clear,240,2013-05-18 00:53:00
7:53 PM,61.0,25.0,25,29.67,10.0,SSW,8.1,-,N/A,,Clear,200,2013-05-18 01:53:00
8:53 PM,57.9,24.1,27,29.68,10.0,Calm,Calm,-,N/A,,Mostly Cloudy,0,2013-05-18 02:53:00
9:53 PM,55.9,25.0,30,29.67,10.0,West,3.5,-,N/A,,Scattered Clouds,260,2013-05-18 03:53:00
10:53 PM,53.1,26.1,35,29.67,10.0,Calm,Calm,-,N/A,,Mostly Cloudy,0,2013-05-18 04:53:00
11:53 PM,51.1,27.0,39,29.66,10.0,East,4.6,-,N/A,,Partly Cloudy,90,2013-05-18 05:53:00